Weather History for Poplar Bluff, MO

Change the Weather History Date:

Tuesday, January 29, 2013

  Actual Average Record
Temperature  
Mean Temperature 64 °F -  
Max Temperature 73 °F 44 °F 73 °F (2013)
Min Temperature 55 °F 25 °F 0 °F (1977)
Degree Days  
Heating Degree Days 1    
Growing Degree Days 14 (Base 50)    
Moisture  
Dew Point 58 °F    
Average Humidity 79    
Maximum Humidity 89    
Minimum Humidity 61    
Precipitation  
Precipitation 1.03 in - - ()
Sea Level Pressure  
Sea Level Pressure 29.71 in    
Wind  
Wind Speed 15 mph (South)    
Max Wind Speed 24 mph    
Max Gust Speed 39 mph    
Visibility 8 miles    
Events Rain , Thunderstorm    
Averages and records for this station are not official NWS values.
T = Trace of Precipitation, MM = Missing Value Source: NWS Daily Summary

Daily Weather History Graph

Daily Weather History Graph

Search for Another Location

Airport:

Trip Planner

Search our weather history database for the weather conditions in past years. The results will help you decide how hot, cold, wet, or windy it might be!

Date:

Astronomy

Jan. 29, 2013 Rise Set
Actual Time 7:05 AM CST 5:23 PM CST
Civil Twilight 6:38 AM CST 5:51 PM CST
Nautical Twilight 6:07 AM CST 6:22 PM CST
Astronomical Twilight 5:36 AM CST 6:52 PM CST
Moon 8:14 PM CST (1/29) 8:07 AM CST (1/29)
Length of Visible Light 11h 13m
Length of Day
10h 18m
Waning Gibbous, 93% of the Moon is Illuminated
Jan 29
Waning Gibbous
Feb 3
Last Quarter
Feb 10
New
Feb 17
First Quarter
Feb 25
Full

Hourly Weather History & Observations

Time (CST) Temp. Dew Point Humidity Pressure Visibility Wind Dir Wind Speed Gust Speed Precip Events Conditions
12:53 AM 63.0 °F 57.9 °F 84% 29.96 in 10.0 mi South 11.5 mph 20.7 mph N/A   Overcast
1:53 AM 63.0 °F 57.9 °F 84% 29.93 in 10.0 mi South 12.7 mph - N/A   Overcast
2:53 AM 63.0 °F 57.9 °F 84% 29.92 in 10.0 mi South 12.7 mph - N/A   Overcast
3:53 AM 63.0 °F 57.9 °F 84% 29.93 in 10.0 mi South 9.2 mph 19.6 mph N/A   Overcast
4:53 AM 63.0 °F 57.9 °F 84% 29.91 in 10.0 mi South 11.5 mph - N/A   Overcast
5:53 AM 63.0 °F 57.9 °F 84% 29.89 in 9.0 mi South 10.4 mph - N/A   Overcast
6:03 AM 62.6 °F 59.0 °F 88% 29.90 in 9.0 mi South 10.4 mph - N/A   Overcast
6:36 AM 62.6 °F 59.0 °F 88% 29.90 in 9.0 mi South 12.7 mph - N/A   Overcast
6:53 AM 63.0 °F 57.9 °F 84% 29.89 in 9.0 mi South 11.5 mph - N/A   Mostly Cloudy
7:13 AM 62.6 °F 57.2 °F 82% 29.89 in 8.0 mi South 13.8 mph - N/A   Mostly Cloudy
7:53 AM 63.0 °F 59.0 °F 87% 29.87 in 8.0 mi South 12.7 mph 19.6 mph N/A   Overcast
8:53 AM 64.0 °F 59.0 °F 84% 29.85 in 10.0 mi South 13.8 mph - N/A   Overcast
9:08 AM 64.4 °F 59.0 °F 83% 29.86 in 10.0 mi South 15.0 mph 24.2 mph N/A   Overcast
9:18 AM 64.4 °F 59.0 °F 83% 29.85 in 10.0 mi South 13.8 mph 23.0 mph N/A   Overcast
9:53 AM 66.0 °F 59.0 °F 78% 29.84 in 10.0 mi South 17.3 mph 25.3 mph N/A   Overcast
10:03 AM 66.2 °F 59.0 °F 78% 29.84 in 10.0 mi South 17.3 mph 25.3 mph N/A   Overcast
10:53 AM 66.9 °F 60.1 °F 79% 29.81 in 10.0 mi South 17.3 mph 27.6 mph 0.03 in   Overcast
11:48 AM 69.8 °F 60.8 °F 73% 29.77 in 10.0 mi SSW 16.1 mph 23.0 mph N/A   Overcast
11:53 AM 69.1 °F 60.1 °F 73% 29.76 in 10.0 mi South 17.3 mph - N/A   Overcast
12:26 PM 69.8 °F 60.8 °F 73% 29.73 in 10.0 mi South 20.7 mph 33.4 mph N/A   Mostly Cloudy
12:53 PM 70.0 °F 59.0 °F 68% 29.70 in 10.0 mi South 20.7 mph 36.8 mph N/A   Mostly Cloudy
1:31 PM 73.4 °F 60.8 °F 65% 29.67 in 10.0 mi South 24.2 mph 31.1 mph N/A   Mostly Cloudy
1:53 PM 72.0 °F 59.0 °F 64% 29.65 in 10.0 mi South 23.0 mph 35.7 mph N/A   Mostly Cloudy
2:53 PM 72.0 °F 57.9 °F 61% 29.63 in 10.0 mi South 24.2 mph 39.1 mph N/A   Overcast
3:53 PM 70.0 °F 59.0 °F 68% 29.61 in 10.0 mi South 24.2 mph 33.4 mph 0.00 in Rain Light Rain
4:53 PM 69.1 °F 60.1 °F 73% 29.57 in 9.0 mi South 21.9 mph 39.1 mph 0.01 in Rain Light Rain
5:53 PM 68.0 °F 60.1 °F 76% 29.54 in 10.0 mi South 24.2 mph 36.8 mph 0.00 in   Overcast
6:53 PM 69.1 °F 60.1 °F 73% 29.49 in 10.0 mi South 21.9 mph 32.2 mph 0.00 in   Overcast
7:53 PM 70.0 °F 59.0 °F 68% 29.44 in 10.0 mi SSE 21.9 mph 28.8 mph N/A   Overcast
8:31 PM 69.8 °F 59.0 °F 68% 29.39 in 10.0 mi SSE 24.2 mph 34.5 mph 0.00 in Thunderstorm Thunderstorm
8:49 PM 60.8 °F 55.4 °F 82% 29.50 in 2.5 mi NW 23.0 mph 38.0 mph 0.00 in Rain , Thunderstorm Light Thunderstorms and Rain
8:53 PM 57.0 °F 54.0 °F 89% 29.50 in 0.8 mi NW 24.2 mph 38.0 mph 0.12 in Rain , Thunderstorm Heavy Thunderstorms and Rain
8:59 PM 57.2 °F 53.6 °F 88% 29.51 in 0.8 mi NW 24.2 mph 36.8 mph 0.33 in Rain , Thunderstorm Heavy Thunderstorms and Rain
9:06 PM 57.2 °F 53.6 °F 88% 29.51 in 2.0 mi NNW 18.4 mph 36.8 mph 0.44 in Rain , Thunderstorm Heavy Thunderstorms and Rain
9:16 PM 57.2 °F 53.6 °F 88% 29.52 in 3.0 mi NNW 18.4 mph 28.8 mph 0.55 in Rain , Thunderstorm Rain
9:53 PM 55.9 °F 52.0 °F 87% 29.51 in 6.0 mi North 11.5 mph - 0.70 in Rain Rain
10:53 PM 55.9 °F 52.0 °F 87% 29.54 in 8.0 mi Calm Calm - 0.09 in Rain Light Rain
11:53 PM 55.0 °F 52.0 °F 89% 29.52 in 10.0 mi SE 3.5 mph - 0.08 in Rain Light Rain